Miscellaneous Local Product
Issued by NWS North Platte, NE

Home | Current Version | Previous Version | Graphics & Text | Print | Product List | Glossary On
Versions: 1 2 3 4 5 6 7 8 9 10 11 12 13 14 15 16 17 18 19 20 21 22 23 24 25 26 27 28 29 30 31 32 33 34 35 36 37 38 39 40 41 42 43 44 45 46 47 48 49 50
000
AXUS43 KLBF 152010
MISLBF


WESTERN AND NORTH CENTRAL NEBRASKA HOURLY WEATHER ROUNDUP
NATIONAL WEATHER SERVICE NORTH PLATTE NE
300 PM CDT MON SEP 15 2014

***STATIONS NOT REPORTING VARIABLES SUCH AS SKY/WEATHER OR
PRESSURE ARE PROVIDED BY THE NEBRASKA DEPARTMENT OF
ROADS...RAWS...AND APRS NETWORKS...AND ARE NOT UNDER
NATIONAL WEATHER SERVICE QUALITY CONTROL***

...OBSERVATIONS IN AND NEAR THE EASTERN PANHANDLE OF NEBRASKA...

CITY           SKY/WX    TMP DP  RH WIND       PRES   REMARKS
PINE RIDGE     SUNNY     65  43  44 S9        30.25F
CHADRON        SUNNY     67  45  45 S9        30.23F
ALLIANCE       SUNNY     64  42  44 S9        30.27F
SIDNEY         SUNNY     65  44  46 S10       30.31F
WHITECLAY        N/A     65  42  43 S9          N/A
RUSHVILLE        N/A     65  31  27 S15         N/A
CRESCENT LAKE    N/A     65  41  41 S6          N/A
LISCO            N/A     67  40  37 E7          N/A
BIG SPRINGS      N/A     61  46  57 E6          N/A
$$

...OBSERVATIONS IN NORTH CENTRAL NEBRASKA...

CITY           SKY/WX    TMP DP  RH WIND       PRES   REMARKS
VALENTINE      SUNNY     64  34  32 E8        30.28F
THEDFORD       SUNNY     64  39  39 E5        30.29F
AINSWORTH      SUNNY     60  35  38 CALM      30.29F
O`NEILL        SUNNY     62  40  45 NW8       30.28F
ORD            SUNNY     63  40  42 N10G18    30.27F
BROKEN BOW     SUNNY     66  41  40 NE10      30.28F
SPRINGVIEW       N/A     63  39  41 CALM        N/A
ROSE             N/A     66  42  40 N3          N/A
NEWPORT          N/A     63  37  39 E6          N/A
COMSTOCK         N/A     69  43  38 NE7         N/A
CHAMBERS         N/A     64  39  40 E3G13       N/A
$$

...OBSERVATIONS IN SOUTHWEST NEBRASKA AND FAR NORTHEAST COLORADO...

CITY           SKY/WX    TMP DP  RH WIND       PRES   REMARKS
WRAY           FAIR      67  45  45 SE8       30.31F
HOLYOKE        FAIR      66  45  45 SE5       30.31F
IMPERIAL       SUNNY     65  42  43 MISG      30.30F
OGALLALA       SUNNY     65  43  44 CALM      30.30F
NORTH PLATTE   SUNNY     65  40  39 NE8       30.29F
MCCOOK         SUNNY     68  45  43 NE8       30.29F
LEXINGTON      SUNNY     65  45  49 E9        30.28F
PAXTON           N/A     64  44  49 N3          N/A
SUTHERLAND       N/A     62  32  31 CALM        N/A
BRADY            N/A     65  43  44 CALM        N/A
GOTHENBURG       N/A     63  38  39 NE3         N/A
CALLAWAY         N/A     64  46  52 CALM        N/A
$$

...SOME WEATHER OBSERVATIONS FROM AROUND THE REGION...

CITY           SKY/WX    TMP DP  RH WIND       PRES   REMARKS
DENVER         MOSUNNY   68  47  46 VRB6      30.31F
LARAMIE        PTSUNNY   70  25  18 CALM      30.32F
CHEYENNE       SUNNY     69  34  27 S15G22    30.31F
SCOTTSBLUFF    SUNNY     66  46  48 SE14      30.26F
RAPID CITY     SUNNY     64  44  48 S15G25    30.22F
PIERRE         SUNNY     64  36  35 CALM      30.25F
WINNER         FAIR      64  35  34 N6        30.28F
SIOUX FALLS    PTSUNNY   60  43  53 N8        30.26S
OMAHA          MOSUNNY   63  47  55 N18G24    30.24R
GRAND ISLAND   SUNNY     66  44  45 NE12G17   30.27F
KANSAS CITY    CLOUDY    65  61  87 N12G21    30.14S
WICHITA        PTSUNNY   81  63  54 N16       30.11R
HAYS           PTSUNNY   70  54  56 NE17G23   30.23S
LIBERAL        CLOUDY    64  55  72 N20       30.23S
GOODLAND       MOSUNNY   65  50  58 VRB5      30.31F
$$



USA.gov is the U.S. government's official web portal to all federal, state and local government web resources and services.